Погода в Ефремове

Погода в Ефремове : погода сейчас, прогноз погоды и архив. Всё, что Вы хотите узнать о погоде в Ефремове!

Поиск расширенной информации на нашем сайте:

Другие новости

Новости СМИ2

Главная страница сайта

Новости сайта

03.07.2017

Напоминаем, что на нашем специализированном сайте Метеоцентр.Азия вы можете получить высокодетализированные автоматические прогнозы погоды по пунктам России, СНГ и мира в авиационном формате (включающие направление и скорость ветра, видимость, явления погоды, количество и форму облачности, нижнюю и верхнюю границу облачности).


Погода в Ефремове - сегодня

Время (UTC), дата Ветер
(°,м/с) 
Видим.   Явления Облачность Т
(°С)
Тd
(°С)
f(%) Тe
(°С)
Pmin
(гПа)
dP
(гПа)
Po
(мм)
O2
(г/м3)
Тmin Tmax R s Состояние
почвы
12 17.04.18 280 (З) 10 км    10/4 600 м кучево-дожд., средняя 
[Cb cap|As op]
+20.8 +4.7 35 +21  1016.2  -0.5  743  278           
15 17.04.18 290 (З) 10 км    10/6 600 м кучево-дожд., средняя 
[Cb cap|As op]
+20.2 +5.5 38 +20  1015.3  -0.9  743  278           
21 17.04.18 220 (ЮЗ) 10 км    10/8 600 м кучево-дожд., средняя 
[Cb cap|As op]
+13.5 +4.4 54 +14  1015.6  -0.5  743  284           
00 18.04.18 230 (ЮЗ) 10 км    10/8 600 м кучево-дожд., средняя 
[Cb cap|As op]
+11.7 +1.9 51 +12  1014.5  -1.2  742  286           
06 18.04.18 250 (З) 8000 м  слаб. дождь{ливн. осадки}  10/6 300 м средняя 
[Frnb|As op]
+9 +5.9 81 +8  1011.7  -1.1  739  287  +9      влажная 
09 18.04.18 240 (ЮЗ) 2800 м  слаб. дождь  10/9 200 м средняя 
[Frnb|As op]
+8.8 +8.2 96 +9  1010.3  -1.4  738  287           
21 18.04.18 300 (СЗ) 4000 м  слаб. дождь  10/8 300 м кучево-дожд., средняя 
[Cb cap|Ac trans]
+7.2 +4.2 81 +6  1008.2  -2  737  289           
06 19.04.18 310 (СЗ) 8000 м  слаб. дождь  10/8 300 м средняя 
[Frnb|As op]
+6 +5.3 95 +4  1001  -1.7  731  287  +5      влажная 
18 19.04.18 010 (С) 5-10{15}  10 км  в посл. час ливневой дождь  9/8 300 м кучево-дожд., средняя 
[Cb cap|Ac und]
+6.9 +5.6 91 +5  1004.6  2.1  734  288    +8     
06 20.04.18 010 (С) 6-10{13}  10 км    3/0 верхняя 
[Ci fib]
+8.4 -0.2 55 +7  1010.3  2.3  738  289  +5.3    0.0    влажная 
21 20.04.18 290 (З) 10 км    ясно 
+8.4 +1.3 61 +8  1013.6  -0.6  741  289           
00 21.04.18 250 (З) 10 км    8/0 средняя 
[Ac trans]
+8.4 +0.2 56 +8  1012.1  -1.5  740  289           
18 21.04.18 240 (ЮЗ) 4{23}  4000 м  слаб. ливневой дождь  10/10 300 м кучево-дожд. 
[Cb cap]
+11.7 +10.7 94 +14  993.2  -0.7  726  278    +20.4     
06 22.04.18 310 (СЗ) 5-13{15}  10 км    8/8 300 м кучево-дожд. 
[Cb cap]
+7.6 +0 59 +6  998  1.2  729  286  +6    0.0    влажная 
21 22.04.18 340 (С) 10 км    9/8 300 м кучево-дожд., средняя 
[Cb cap|Ac trans]
+5.5 -3.8 51 +5  1008.1  1.7  736  291           
00 23.04.18 340 (С) 10 км    8/0 средняя 
[Ac trans]
+1.2 -1.7 81 +1  1009.7  1.2  737  296           
06 23.04.18 330 (СЗ) 5-10{10}  10 км    3/0 средняя 
[Ac trans]
+3 -6.6 49 +1  1012.4  1.4  739  295  -0.8        влажная 
09 23.04.18 320 (СЗ) 5{11}  10 км    4/4 600 м 
[Cu hum]
+5 -8.3 38 +3  1012.8  0.6  740  294           
15 23.04.18 320 (СЗ) 4{11}  10 км    ясно 
+8.2 -9.2 28 +7  1012.5  0.4  740  290           
21 23.04.18 290 (З) 10 км    ясно 
+2.7 -7.5 47 +2  1014.6  0.2  741  296           
00 24.04.18 280 (З) 10 км    ясно 
+1 -7.4 53 +2  1015.2  0.4  741  298           
03 24.04.18 250 (З) 10 км    ясно 
-0.6 -6.9 62 1016  0.7  742  300  -0.9         
06 24.04.18 270 (З) 10 км    3/0 верхняя 
[Cs]
+6.7 -6.7 38 +7  1015.5  0.2  742  292  -1        сухая 
09 24.04.18 290 (З) 10 км    8/1 600 м верхняя 
[Cu hum|Cs]
+10.5 -7.4 28 +10  1014.6  -0.6  742  288           
12 24.04.18 260 (З) 10 км    8/0 верхняя 
[Cs]
+12.1 -7.5 25 +12  1012.8  -1.4  740  286           
Время (UTC), дата Ветер
(°,м/с) 
Видим.   Явления Облачность Т
(°С)
Тd
(°С)
f(%) Тe
(°С)
Pmin
(гПа)
dP
(гПа)
Po
(мм)
O2
(г/м3)
Тmin Tmax R s Состояние
почвы

Для получения пояснительной информации подведите курсор к названию столбца.

ПОГОДА в Ефремове - архив

Всё, что Вы хотите узнать о погоде в Ефремове - удобно и подробно!

Выберите нужную дату (начиная с 1 января 2015* года) и нажмите кнопку "Найти".
Будут отображены архивные сводки погоды по пункту Ефремов, начиная с указанной даты.


Отображать данные в формате CSV (для использования в таблицах Excel)


Внимание! Наш архив погоды предназначен исключительно для личного некоммерческого использования в познавательных целях. Если Вам необходимы официальные справки о состоянии погоды (для производственных, юридических, коммерческих и т.п. целей), обращайтесь в органы Росгидромета.

*Примечание: данная дата относится к архиву по метеостанциям СССР (Россия, СНГ, Балтия).
Архив по метеостанциям Зарубежной Европы и Азии (кроме Китая) хранится 10 дней, по другим регионам земного шара (Китай, Африка, Америка, Австралия, Океания) - 1 день.

Ефремов - район местоположения метеостанции


Название, широта, долгота, высота метеостанции:
Ефремов 53.2°ш. 38.1°д. 215 м над ур. моря [Российская Федерация]

Дополнительная информация

В oтличие oт бoльшинства пoгoдных сайтoв мы публикуем пoдрoбную метеoинфoрмацию в детальнoм прoфессиoнальнoм фoрмате.

Характеристики температуры и влажнoсти вoздуха измеряются на высoте 2 м в тени вдали oт зданий и деревьев.
Скoрoсть ветра измеряется на высoте 10 м (на урoвне рoста челoвека скoрoсть ветра ниже в 1.5-2 раза). Если метеoстанция нахoдится в гoрoде или в лесу, тo скoрoсть ветра занижена на 2-4 м/с пo сравнению с oткрытым местoм. Скoрoсть ветра над акватoриями крупных рек и oзёр, а также на вершинах хoлмoв на 2-5 м/с выше, чем в oбычных услoвиях.
Атмoсфернoе давление в разных тoчках местнoсти мoжет значительнo oтличаться oт давления на метеoстанции, в зависимoсти oт услoвий рельефа (при пoдъёме на 10 м давление пoнижается примернo на 1 мм рт.ст.).